STARLINK-1734 (46325 NORAD) Tracking and Keplerian Element Data
This shows tracking and keplerian element data for the satellite.
Feedback or suggestion? Click here.
Element | Value |
Catalog | 46325 |
Name | STARLINK-1734 |
Epoch Orbit | 181 |
Epoch Day | 26.91667824 |
Epoch Year | 2021 |
RAAN | 76.4089 |
Inclination | 53.0963 |
Eccentricity | 0.0001314 |
Argument of Perigee | 64.883 |
Mean Anonmoly | 259.9942 |
Mean Motion | 15.10246076 |
Decay Rate | -0.01130624 |
L1 | 1 46325U 20062A 21026.91667824 -.01130624 00000-0 -74145-1 0 9995 |
L2 | 2 46325 53.0963 76.4089 0001314 64.8830 259.9942 15.10246076 1812 |
Live tracking and technical data element details for STARLINK-1734 (NORAD 46325). STARLINK-1734 can be tracked NOW for your location showing map with azimuth and elevation plus other details from your city location.
Track the satellite on the map from your city or location and see movement details for azimuth, elevation, latitude, longitude, range, height, and movement on the map or in text.
IsCatalogInMostPopularTable: catalog: 46325, numindb: 45
Update: records affected: 1
GetName: 46325 STARLINK-1734
Hit Count: updated at: Thu, 28 Jan 2021 12:02:12 GMT